KD8BMB Weather Reports


Display with metric or nautical units.
time (UTC)temp
F
wind
direction
speed
MPH
gust
MPH
rain 1hr
in
rain 24hr
in
rain mn
in
humidity
%
barometer
mb
20260905201648 77 37 0.0 0.0 0.00 0.00 0.00 67 1014.9
20260905201147 77 60 0.0 2.0 0.00 0.00 0.00 66 1014.9
20260905200643 78 87 0.0 1.0 0.00 0.00 0.00 64 1014.9
20260905200138 78 327 1.0 2.0 0.00 0.00 0.00 64 1015.0
20260905195636 77 27 0.0 1.0 0.00 0.00 0.00 66 1015.1
20260905195131 78 71 1.0 2.0 0.00 0.00 0.00 65 1015.0
20260905194626 80 82 0.0 0.0 0.00 0.00 0.00 64 1014.9
20260905194126 79 152 0.0 1.0 0.00 0.00 0.00 64 1014.9
20260905193621 78 80 0.0 0.0 0.00 0.00 0.00 65 1015.1
20260905193116 79 87 0.0 1.0 0.00 0.00 0.00 65 1015.2
20260905192612 78 109 0.0 1.0 0.00 0.00 0.00 67 1015.1
20260905192108 78 65 1.0 2.0 0.00 0.00 0.00 65 1015.5
20260905191606 80 133 7.0 10.0 0.00 0.00 0.00 64 1015.2
20260905191105 79 349 0.0 1.0 0.00 0.00 0.00 65 1015.3
20260905190603 78 78 1.0 1.0 0.00 0.00 0.00 64 1015.4
20260905185602 79 45 1.0 2.0 0.00 0.00 0.00 64 1015.3
20260905185056 79 63 0.0 1.0 0.00 0.00 0.00 64 1015.5
20260905184551 78 7 2.0 2.0 0.00 0.00 0.00 66 1015.5
20260905184049 78 49 0.0 1.0 0.00 0.00 0.00 68 1015.8
20260905183544 78 48 0.0 0.0 0.00 0.00 0.00 65 1015.4
20260905183039 78 65 1.0 1.0 0.00 0.00 0.00 66 1015.2
20260905182538 77 329 3.0 5.0 0.00 0.00 0.00 68 1015.2
20260905182033 77 17 1.0 1.0 0.00 0.00 0.00 67 1015.4
20260905181528 79 33 0.0 1.0 0.00 0.00 0.00 67 1015.5
20260905181027 78 67 0.0 1.0 0.00 0.00 0.00 68 1015.5
20260905180522 78 55 0.0 1.0 0.00 0.00 0.00 67 1015.4
20260905180017 78 65 2.0 6.0 0.00 0.00 0.00 67 1015.3
20260905175516 79 305 2.0 3.0 0.00 0.00 0.00 65 1015.4
20260905175012 78 335 0.0 0.0 0.00 0.00 0.00 66 1015.3
20260905174508 79 86 0.0 0.0 0.00 0.00 0.00 68 1015.4
20260905174003 78 128 1.0 1.0 0.00 0.00 0.00 67 1015.3
20260905173459 79 91 5.0 7.0 0.00 0.00 0.00 67 1015.1
20260905172954 77 131 3.0 6.0 0.00 0.00 0.00 68 1015.2
20260905172452 77 62 1.0 5.0 0.00 0.00 0.00 68 1015.4
20260905171948 76 34 1.0 2.0 0.00 0.00 0.00 71 1015.4
20260905171444 77 178 2.0 3.0 0.00 0.00 0.00 71 1015.6
20260905170941 78 7 3.0 5.0 0.00 0.00 0.00 67 1015.4
20260905170437 79 63 0.0 0.0 0.00 0.00 0.00 67 1015.4
20260905165936 78 311 0.0 0.0 0.00 0.00 0.00 69 1015.3
20260905165431 77 66 0.0 0.0 0.00 0.00 0.00 70 1015.5
20260905164926 77 327 0.0 0.0 0.00 0.00 0.00 70 1015.3
20260905164420 76 83 0.0 0.0 0.00 0.00 0.00 69 1015.6
20260905163915 76 81 0.0 1.0 0.00 0.00 0.00 71 1015.5
20260905163412 76 65 1.0 1.0 0.00 0.00 0.00 72 1015.9
20260905162908 76 21 0.0 0.0 0.00 0.00 0.00 69 1015.6
20260905162403 77 46 0.0 0.0 0.00 0.00 0.00 70 1015.7
20260905161857 77 307 1.0 3.0 0.00 0.00 0.00 70 1015.4
20260905161356 76 330 0.0 1.0 0.00 0.00 0.00 69 1015.7
20260905160854 77 21 1.0 5.0 0.00 0.00 0.00 72 1015.6
20260905160349 77 250 0.0 0.0 0.00 0.00 0.00 72 1015.7
20260905155844 76 30 0.0 0.0 0.00 0.00 0.00 74 1015.4
20260905155343 76 32 1.0 2.0 0.00 0.00 0.00 72 1015.6
20260905154842 75 50 5.0 8.0 0.00 0.00 0.00 73 1015.6
20260905154338 76 64 1.0 3.0 0.00 0.00 0.00 72 1015.7
20260905153833 75 75 0.0 0.0 0.00 0.00 0.00 74 1015.5
20260905153330 75 62 0.0 1.0 0.00 0.00 0.00 75 1015.4
20260905152829 76 47 0.0 0.0 0.00 0.00 0.00 73 1015.6
20260905152328 75 72 1.0 2.0 0.00 0.00 0.00 74 1015.5
20260905151824 75 68 0.0 1.0 0.00 0.00 0.00 75 1015.5
20260905151319 76 61 0.0 0.0 0.00 0.00 0.00 75 1015.4
20260905150814 75 24 0.0 0.0 0.00 0.00 0.00 75 1015.6
20260905150314 75 110 0.0 1.0 0.00 0.00 0.00 75 1015.6
20260905145810 75 44 0.0 0.0 0.00 0.00 0.00 77 1015.5
20260905145306 75 82 1.0 2.0 0.00 0.00 0.00 75 1015.4
20260905144804 73 61 2.0 6.0 0.00 0.00 0.00 76 1015.3
20260905144300 73 66 1.0 3.0 0.00 0.00 0.00 77 1015.5
20260905143758 73 98 2.0 5.0 0.00 0.00 0.00 77 1015.5
20260905143253 73 65 1.0 3.0 0.00 0.00 0.00 77 1015.3
20260905142751 73 65 4.0 7.0 0.00 0.00 0.00 76 1015.2
20260905142246 73 70 1.0 1.0 0.00 0.00 0.00 76 1015.4
20260905141742 73 71 2.0 3.0 0.00 0.00 0.00 78 1015.3
20260905141238 73 70 1.0 3.0 0.00 0.00 0.00 79 1015.2
20260905140733 72 69 1.0 2.0 0.00 0.00 0.00 79 1015.2
20260905140227 71 28 3.0 6.0 0.00 0.00 0.00 81 1015.1
20260905135726 71 95 3.0 6.0 0.00 0.00 0.00 81 1015.2
20260905135223 71 78 5.0 8.0 0.00 0.00 0.00 82 1015.1
20260905134722 71 66 2.0 2.0 0.00 0.00 0.00 85 1015.3
20260905134221 71 53 2.0 2.0 0.00 0.00 0.00 85 1015.2
20260905133716 70 48 1.0 2.0 0.00 0.00 0.00 87 1015.4
20260905133211 69 3 2.0 3.0 0.00 0.00 0.00 90 1015.4
20260905132710 69 86 2.0 2.0 0.00 0.00 0.00 91 1015.3
20260905132206 68 82 0.0 0.0 0.00 0.00 0.00 92 1015.5
20260905131701 68 39 1.0 2.0 0.00 0.00 0.00 93 1015.5
20260905131156 68 79 5.0 7.0 0.00 0.00 0.00 93 1015.3
20260905130650 68 107 3.0 5.0 0.00 0.00 0.00 93 1015.5
20260905130150 68 73 0.0 1.0 0.00 0.00 0.00 94 1015.2
20260905125644 68 81 2.0 3.0 0.00 0.00 0.00 94 1015.3
20260905125140 68 53 0.0 0.0 0.00 0.00 0.00 94 1015.5
20260905124636 68 60 2.0 2.0 0.00 0.00 0.00 94 1015.4
20260905124132 68 76 1.0 1.0 0.00 0.00 0.00 95 1015.1
20260905123627 68 65 1.0 1.0 0.00 0.00 0.00 95 1015.3
20260905123124 68 66 0.0 0.0 0.00 0.00 0.00 95 1015.2
20260905122619 68 75 0.0 0.0 0.00 0.00 0.00 96 1014.9
20260905122119 68 91 6.0 7.0 0.00 0.00 0.00 96 1014.9
20260905121614 67 78 1.0 3.0 0.00 0.00 0.00 96 1014.8
20260905121109 67 28 0.0 1.0 0.00 0.00 0.00 97 1015.0
20260905120608 67 64 4.0 5.0 0.00 0.00 0.00 97 1014.9
20260905120103 67 69 0.0 1.0 0.00 0.00 0.00 98 1014.9
20260905115602 67 74 2.0 3.0 0.00 0.00 0.00 98 1014.8
20260905115057 67 85 0.0 1.0 0.00 0.00 0.00 98 1014.7
20260905114556 67 60 0.0 0.0 0.00 0.00 0.00 98 1014.7
20260905114055 67 63 3.0 3.0 0.00 0.00 0.00 98 1014.6
20260905113550 67 78 1.0 1.0 0.00 0.00 0.00 99 1014.5
20260905113045 66 81 2.0 3.0 0.00 0.00 0.00 99 1014.6
20260905112541 67 27 1.0 2.0 0.00 0.00 0.00 99 1014.3
20260905112036 66 61 1.0 1.0 0.00 0.00 0.00 99 1014.3
20260905111531 66 70 2.0 2.0 0.00 0.00 0.00 99 1014.2
20260905111030 66 57 0.0 0.0 0.00 0.00 0.00 99 1014.3
20260905110529 66 145 2.0 2.0 0.00 0.00 0.00 99 1014.5
20260905110025 66 69 0.0 1.0 0.00 0.00 0.00 99 1014.5
20260905105519 66 74 3.0 5.0 0.00 0.00 0.00 99 1014.6
20260905105018 66 74 0.0 0.0 0.00 0.00 0.00 99 1014.6
20260905104515 66 29 0.0 0.0 0.00 0.00 0.00 99 1014.5
20260905104014 66 60 0.0 0.0 0.00 0.00 0.00 99 1014.6
20260905103509 66 316 0.0 0.0 0.00 0.00 0.00 99 1014.6
20260905103005 66 123 0.0 0.0 0.00 0.00 0.00 99 1014.3
20260905102501 66 26 0.0 0.0 0.00 0.00 0.00 99 1014.4
20260905101956 66 57 0.0 0.0 0.00 0.00 0.00 99 1014.3
20260905101455 66 51 1.0 2.0 0.00 0.00 0.00 99 1014.4
20260905100954 66 221 1.0 2.0 0.00 0.00 0.00 99 1014.4
20260905100450 66 42 0.0 1.0 0.00 0.00 0.00 99 1014.2
20260905095949 66 83 1.0 2.0 0.00 0.00 0.00 99 1014.4
20260905095444 66 51 1.0 3.0 0.00 0.00 0.00 99 1014.4
20260905094939 66 72 0.0 1.0 0.00 0.00 0.00 99 1014.4
20260905094435 66 72 0.0 0.0 0.00 0.00 0.00 99 1014.6
20260905093933 66 42 0.0 0.0 0.00 0.00 0.00 99 1014.5
20260905093429 66 74 0.0 0.0 0.00 0.00 0.00 99 1014.6
20260905092924 66 50 0.0 0.0 0.00 0.00 0.00 99 1014.5
20260905092420 66 89 0.0 0.0 0.00 0.00 0.00 99 1014.3
20260905091914 66 17 0.0 0.0 0.00 0.00 0.00 99 1014.3
20260905091409 66 353 0.0 0.0 0.00 0.00 0.00 99 1014.5
20260905090908 66 311 0.0 0.0 0.00 0.00 0.00 99 1014.5
20260905090404 66 152 0.0 0.0 0.00 0.00 0.00 99 1014.5
20260905085903 66 288 0.0 0.0 0.00 0.00 0.00 99 1014.5
20260905085357 66 4 0.0 0.0 0.00 0.00 0.00 99 1014.5
20260905084853 66 323 0.0 0.0 0.00 0.00 0.00 99 1014.5
20260905084352 66 8 0.0 0.0 0.00 0.00 0.00 99 1014.5
20260905083847 66 336 0.0 0.0 0.00 0.00 0.00 99 1014.2
20260905083343 66 314 0.0 0.0 0.00 0.00 0.00 99 1014.2
20260905082838 66 56 0.0 0.0 0.00 0.00 0.00 99 1014.2
20260905082334 66 53 0.0 0.0 0.00 0.00 0.00 99 1014.3
20260905081829 66 42 0.0 0.0 0.00 0.00 0.00 99 1014.7
20260905081324 66 326 0.0 0.0 0.00 0.00 0.00 99 1014.5
20260905080823 66 270 0.0 0.0 0.00 0.00 0.00 99 1014.5
20260905080318 66 80 1.0 1.0 0.00 0.00 0.00 99 1014.6
20260905075816 66 22 0.0 0.0 0.00 0.00 0.00 99 1014.5
20260905075311 66 277 0.0 0.0 0.00 0.00 0.00 99 1014.1
20260905074809 66 181 0.0 0.0 0.00 0.00 0.00 99 1014.4
20260905074305 66 42 0.0 0.0 0.00 0.00 0.00 99 1014.0
20260905073800 66 70 1.0 1.0 0.00 0.00 0.00 99 1014.2
20260905073255 66 89 0.0 1.0 0.00 0.00 0.00 99 1014.0
20260905072750 66 340 0.0 0.0 0.00 0.00 0.00 99 1014.1
20260905072246 66 63 0.0 0.0 0.00 0.00 0.00 99 1013.9
20260905071742 66 66 0.0 0.0 0.00 0.00 0.00 99 1013.9
20260905071238 66 308 0.0 0.0 0.00 0.00 0.00 99 1013.8
20260905070733 66 78 1.0 1.0 0.00 0.00 0.00 99 1013.9
20260905070229 66 70 0.0 0.0 0.00 0.00 0.00 99 1013.8
20260905065727 66 84 0.0 0.0 0.00 0.00 0.00 99 1013.7
20260905065221 66 49 0.0 0.0 0.00 0.00 0.00 99 1013.8
20260905064717 66 67 1.0 2.0 0.00 0.00 0.00 99 1013.7
20260905064213 66 11 1.0 2.0 0.00 0.00 0.00 99 1013.5
20260905063711 66 68 0.0 1.0 0.00 0.00 0.00 99 1013.9
20260905063207 66 308 0.0 0.0 0.00 0.00 0.00 99 1014.0
20260905062703 66 9 0.0 0.0 0.00 0.00 0.00 99 1014.0
20260905062202 66 52 0.0 0.0 0.00 0.00 0.00 99 1014.1
20260905061702 66 43 0.0 0.0 0.00 0.00 0.00 99 1013.9
20260905061156 66 43 0.0 1.0 0.00 0.00 0.00 99 1014.1
20260905060652 66 29 0.0 0.0 0.00 0.00 0.00 99 1014.2
20260905060148 66 32 0.0 1.0 0.00 0.00 0.00 99 1014.2
20260905055647 66 74 0.0 0.0 0.00 0.00 0.00 99 1014.3
20260905055142 66 80 2.0 2.0 0.00 0.00 0.00 99 1014.2
20260905054638 66 75 0.0 1.0 0.00 0.00 0.00 99 1014.4
20260905054133 66 58 0.0 0.0 0.00 0.00 0.00 99 1014.4
20260905053632 66 148 0.0 1.0 0.00 0.00 0.00 99 1014.4
20260905053128 66 73 0.0 1.0 0.00 0.00 0.00 99 1014.4
20260905052627 66 71 1.0 1.0 0.00 0.00 0.00 99 1014.4
20260905052121 66 57 1.0 2.0 0.00 0.00 0.00 99 1014.5
20260905051617 67 71 0.0 1.0 0.00 0.00 0.00 99 1014.5
20260905051114 67 51 0.0 0.0 0.00 0.00 0.00 99 1014.4
20260905050604 67 33 0.0 0.0 0.00 0.00 0.00 99 1014.5
20260905050101 67 51 0.0 0.0 0.00 0.00 0.00 99 1014.4
20260905045554 67 26 0.0 0.0 0.00 0.00 0.00 99 1014.2
20260905045050 67 79 0.0 0.0 0.00 0.00 0.00 99 1014.0
20260905044550 67 68 0.0 1.0 0.00 0.00 0.00 99 1014.0
20260905044044 67 74 1.0 1.0 0.00 0.00 0.00 99 1014.1
20260905043544 67 92 0.0 0.0 0.00 0.00 0.00 99 1014.0
20260905043039 67 120 1.0 1.0 0.00 0.00 0.00 99 1014.2
20260905042538 67 48 0.0 0.0 0.00 0.00 0.00 99 1014.2
20260905042033 67 5 0.0 0.0 0.00 0.00 0.00 99 1014.4
20260905041528 68 108 0.0 0.0 0.00 0.00 0.00 99 1014.3
20260905041024 68 332 0.0 0.0 0.00 0.00 0.00 99 1014.2
20260905040523 68 47 0.0 0.0 0.00 0.00 0.00 99 1014.4
20260905040022 68 21 0.0 0.0 0.00 0.07 0.07 99 1014.4
20260905035517 68 78 0.0 1.0 0.00 0.07 0.07 99 1014.4
20260905035015 68 72 1.0 1.0 0.00 0.07 0.07 99 1014.6
20260905034510 68 66 0.0 1.0 0.00 0.07 0.07 99 1014.5
20260905034009 68 55 1.0 2.0 0.00 0.07 0.07 99 1014.5
20260905033503 68 126 3.0 3.0 0.00 0.07 0.07 99 1014.6
20260905032958 69 260 0.0 0.0 0.00 0.07 0.07 99 1014.4
20260905032454 69 78 0.0 1.0 0.00 0.07 0.07 99 1014.5
20260905031948 69 42 0.0 0.0 0.00 0.07 0.07 99 1014.6
20260905031445 69 101 0.0 1.0 0.00 0.07 0.07 99 1014.6
20260905030939 69 355 0.0 0.0 0.00 0.07 0.07 99 1014.6
20260905030435 69 56 0.0 1.0 0.00 0.07 0.07 99 1014.5
20260905025933 70 66 0.0 0.0 0.00 0.07 0.07 99 1014.7
20260905025429 70 76 0.0 1.0 0.00 0.07 0.07 99 1014.6
20260905024926 70 71 3.0 5.0 0.00 0.07 0.07 99 1015.0
20260905024426 70 51 0.0 0.0 0.00 0.07 0.07 99 1014.8
20260905023921 70 69 0.0 0.0 0.00 0.07 0.07 99 1014.8
20260905023416 71 72 0.0 0.0 0.00 0.07 0.07 99 1015.1
20260905022915 71 71 1.0 3.0 0.00 0.07 0.07 99 1014.9
20260905022411 71 77 0.0 0.0 0.00 0.07 0.07 99 1015.0
20260905021906 71 52 0.0 0.0 0.00 0.07 0.07 99 1014.9
20260905021400 71 57 0.0 0.0 0.00 0.07 0.07 99 1015.0
20260905020856 71 74 0.0 1.0 0.00 0.07 0.07 99 1015.2
20260905020349 71 127 1.0 2.0 0.00 0.07 0.07 99 1014.9
20260905015844 71 89 0.0 0.0 0.00 0.07 0.07 99 1014.9
20260905015343 71 77 0.0 0.0 0.00 0.07 0.07 99 1014.9
20260905014837 71 340 0.0 0.0 0.00 0.07 0.07 99 1014.8
20260905014332 71 72 0.0 0.0 0.00 0.07 0.07 99 1014.7
20260905013828 71 73 1.0 2.0 0.00 0.07 0.07 99 1014.7
20260905013324 71 71 0.0 0.0 0.00 0.07 0.07 99 1015.0
20260905012819 71 72 0.0 0.0 0.00 0.07 0.07 99 1015.0
20260905012315 71 328 0.0 0.0 0.00 0.07 0.07 99 1015.0
20260905011811 71 78 0.0 1.0 0.00 0.07 0.07 99 1014.8
20260905011307 71 68 0.0 1.0 0.00 0.07 0.07 99 1014.8
20260905010807 72 64 0.0 1.0 0.00 0.07 0.07 99 1014.6
20260905010302 72 54 0.0 0.0 0.00 0.07 0.07 99 1014.6
20260905005758 72 74 2.0 3.0 0.00 0.07 0.07 99 1014.3
20260905005253 72 68 2.0 3.0 0.00 0.07 0.07 99 1014.4
20260905004753 72 58 4.0 6.0 0.00 0.07 0.07 99 1014.4
20260905004247 72 75 1.0 1.0 0.00 0.07 0.07 99 1014.3
20260905003743 73 94 3.0 5.0 0.00 0.07 0.07 98 1014.4
20260905003238 73 93 3.0 5.0 0.00 0.07 0.07 98 1014.2
20260905002734 73 72 3.0 3.0 0.00 0.07 0.07 98 1014.1
20260905002234 73 46 3.0 5.0 0.00 0.07 0.07 97 1014.0
20260905001729 74 61 1.0 3.0 0.00 0.07 0.07 97 1014.1
20260905001228 75 68 1.0 2.0 0.00 0.07 0.07 97 1013.9
20260905000724 75 320 0.0 0.0 0.00 0.07 0.07 96 1014.1
20260905000219 75 64 2.0 2.0 0.00 0.07 0.07 96 1013.8
20260904235715 75 320 0.0 0.0 0.00 0.07 0.07 95 1013.9
20260904235209 75 71 0.0 0.0 0.00 0.07 0.07 95 1013.8
20260904234703 75 61 0.0 0.0 0.00 0.07 0.07 95 1014.0
20260904234159 75 28 0.0 0.0 0.00 0.07 0.07 95 1014.0
20260904233655 75 335 0.0 0.0 0.00 0.07 0.07 94 1013.7
20260904233150 75 58 0.0 1.0 0.00 0.07 0.07 94 1013.9
20260904232647 76 10 2.0 5.0 0.00 0.07 0.07 94 1013.7
20260904232143 76 56 1.0 1.0 0.00 0.07 0.07 94 1013.7
20260904231638 76 302 1.0 2.0 0.00 0.07 0.07 94 1013.8
20260904231133 76 13 1.0 1.0 0.00 0.07 0.07 94 1013.9
20260904230632 76 5 1.0 2.0 0.00 0.07 0.07 93 1013.5
20260904230128 77 338 2.0 5.0 0.00 0.07 0.07 93 1013.3
20260904225626 77 112 3.0 5.0 0.00 0.07 0.07 93 1013.4
20260904225120 77 52 0.0 0.0 0.00 0.07 0.07 92 1013.3
20260904224615 78 74 1.0 2.0 0.00 0.07 0.07 92 1013.3
20260904224110 78 305 0.0 0.0 0.00 0.07 0.07 91 1013.0
20260904223609 78 38 0.0 0.0 0.00 0.07 0.07 90 1013.1
20260904223105 79 54 1.0 2.0 0.00 0.07 0.07 86 1013.2
20260904222601 79 354 0.0 0.0 0.00 0.07 0.07 85 1012.7
20260904222056 79 208 0.0 0.0 0.00 0.07 0.07 85 1013.0
20260904221556 80 319 1.0 1.0 0.00 0.07 0.07 84 1013.0
20260904221056 80 345 0.0 0.0 0.00 0.07 0.07 84 1012.7
20260904220550 79 325 0.0 0.0 0.00 0.07 0.07 84 1013.0
20260904220046 79 285 0.0 0.0 0.00 0.07 0.07 83 1012.9
20260904215545 79 305 0.0 0.0 0.00 0.07 0.07 84 1012.9
20260904215036 80 285 0.0 0.0 0.00 0.07 0.07 82 1012.7
20260904214531 80 314 0.0 0.0 0.00 0.07 0.07 82 1012.7
20260904214026 80 14 0.0 0.0 0.00 0.07 0.07 84 1012.9
20260904213524 80 326 0.0 0.0 0.00 0.07 0.07 83 1012.6
20260904213016 80 310 0.0 1.0 0.00 0.07 0.07 83 1012.6
20260904212515 80 315 2.0 3.0 0.00 0.07 0.07 82 1013.0
20260904212010 80 290 0.0 0.0 0.00 0.07 0.07 82 1012.6
20260904211504 80 54 0.0 0.0 0.00 0.07 0.07 81 1012.7
20260904211000 81 336 0.0 0.0 0.00 0.07 0.07 80 1012.5
20260904210459 81 295 0.0 0.0 0.00 0.07 0.07 80 1012.5
20260904205955 80 290 0.0 0.0 0.00 0.07 0.07 80 1012.4
20260904205450 81 238 0.0 1.0 0.00 0.07 0.07 79 1012.6
20260904204947 80 334 0.0 0.0 0.00 0.07 0.07 82 1012.6
20260904204443 79 257 2.0 2.0 0.00 0.07 0.07 83 1012.6
20260904203939 80 226 2.0 5.0 0.00 0.07 0.07 83 1013.0
20260904203435 80 242 1.0 2.0 0.00 0.07 0.07 83 1013.1
20260904202930 78 292 1.0 2.0 0.00 0.07 0.07 84 1012.7
20260904202426 79 217 0.0 1.0 0.00 0.07 0.07 85 1012.7
20260904201922 79 244 2.0 3.0 0.00 0.07 0.07 83 1012.7